Total_Precipitation_Accumulation
0.21 0.11 0.10 0.10 0.13 0.13 0.14 0.18 0.20 0.21 0.20 0.19 0.18 0.18 0.20 0.20 0.19 0.17 0.16 0.21 0.25 0.31 0.34 0.39 0.42 0.41 0.41 0.40 0.36 0.32 0.32 0.35 0.41 0.42 0.47 0.54 0.59 0.61 0.64 0.67 0.78 0.71 0.65
0.19 0.14 0.11 0.09 0.10 0.12 0.13 0.17 0.20 0.21 0.21 0.24 0.23 0.24 0.24 0.20 0.17 0.16 0.16 0.23 0.32 0.37 0.35 0.37 0.37 0.35 0.37 0.33 0.29 0.28 0.28 0.33 0.44 0.53 0.61 0.63 0.71 0.73 0.71 0.70 0.86 1.06 0.82
0.21 0.23 0.11 0.10 0.10 0.11 0.13 0.16 0.19 0.18 0.20 0.22 0.23 0.24 0.21 0.18 0.19 0.20 0.20 0.25 0.33 0.36 0.35 0.32 0.30 0.32 0.34 0.33 0.28 0.27 0.30 0.39 0.52 0.72 1.09 1.04 0.86 0.81 0.80 0.77 0.71 0.69 0.62
0.20 0.19 0.13 0.11 0.12 0.13 0.13 0.17 0.22 0.21 0.20 0.20 0.22 0.22 0.21 0.22 0.23 0.25 0.26 0.29 0.34 0.37 0.38 0.38 0.36 0.33 0.34 0.34 0.31 0.28 0.32 0.43 0.65 0.97 1.61 1.46 1.15 1.17 1.10 0.93 0.72 0.61 0.54
0.18 0.16 0.16 0.16 0.17 0.18 0.17 0.17 0.23 0.24 0.25 0.25 0.25 0.24 0.25 0.27 0.28 0.29 0.32 0.35 0.38 0.41 0.44 0.46 0.45 0.40 0.37 0.37 0.36 0.37 0.45 0.58 0.83 1.25 1.88 1.80 1.68 1.59 1.24 0.96 0.82 0.74 0.66
0.22 0.16 0.18 0.20 0.21 0.22 0.21 0.21 0.23 0.24 0.28 0.32 0.32 0.31 0.31 0.32 0.32 0.33 0.38 0.42 0.45 0.48 0.52 0.55 0.54 0.46 0.41 0.41 0.44 0.49 0.58 0.75 0.95 1.35 1.98 1.96 1.83 1.68 1.29 1.10 0.92 0.82 0.74
0.38 0.31 0.24 0.23 0.22 0.22 0.24 0.29 0.33 0.31 0.32 0.36 0.36 0.34 0.34 0.36 0.36 0.38 0.41 0.44 0.49 0.51 0.52 0.49 0.48 0.44 0.43 0.45 0.47 0.53 0.69 0.96 1.16 1.71 2.07 2.03 2.08 1.72 1.39 1.30 1.16 0.98 0.80
0.52 0.45 0.39 0.31 0.23 0.26 0.33 0.35 0.41 0.45 0.44 0.43 0.42 0.42 0.43 0.41 0.42 0.45 0.47 0.51 0.58 0.64 0.64 0.54 0.48 0.46 0.46 0.46 0.47 0.56 0.72 0.88 1.01 1.61 2.02 1.97 1.79 1.57 1.50 1.44 1.28 1.08 0.89
0.66 0.65 0.58 0.44 0.37 0.40 0.45 0.46 0.50 0.53 0.52 0.51 0.53 0.54 0.54 0.53 0.52 0.52 0.53 0.58 0.63 0.67 0.66 0.62 0.60 0.58 0.56 0.54 0.54 0.59 0.70 0.94 1.13 1.41 1.55 1.91 1.78 1.81 1.69 1.48 1.25 1.06 0.94
0.92 0.93 0.86 0.83 0.77 0.66 0.65 0.71 0.68 0.69 0.64 0.55 0.53 0.57 0.58 0.54 0.53 0.57 0.55 0.62 0.68 0.70 0.68 0.71 0.79 0.79 0.73 0.64 0.61 0.65 0.76 0.87 0.86 1.21 1.78 1.79 1.74 1.95 1.97 1.64 1.36 1.17 1.04
1.26 1.20 1.05 1.09 1.07 0.93 0.88 0.83 0.89 0.88 0.81 0.72 0.64 0.66 0.63 0.72 0.81 0.82 0.74 0.86 0.91 0.95 0.99 1.01 0.99 0.96 0.97 0.86 0.81 0.83 0.86 0.82 1.00 1.48 1.93 1.70 1.76 2.03 2.13 1.93 1.61 1.39 1.25
1.48 1.38 1.29 1.17 1.11 1.05 0.96 1.04 1.13 1.10 1.07 0.91 0.96 0.95 0.98 1.31 1.47 1.26 1.34 1.36 1.33 1.32 1.29 1.25 1.21 1.19 1.10 0.90 0.93 0.98 0.80 0.88 1.27 1.73 1.70 1.62 1.81 2.11 2.36 2.17 1.84 1.59 1.50
1.82 1.60 1.63 1.53 1.41 1.53 1.59 1.46 1.46 1.49 1.54 1.35 1.44 1.50 1.56 1.73 1.75 1.72 1.83 1.68 1.63 1.57 1.55 1.65 1.43 1.19 1.15 1.12 1.06 1.04 0.96 0.99 1.21 1.45 1.55 1.64 1.90 2.24 2.48 2.33 2.06 1.88 1.84
2.33 2.10 2.00 2.02 1.93 1.99 2.22 2.02 1.81 1.69 1.73 1.73 1.84 1.79 2.08 2.17 2.15 2.13 2.20 2.09 2.06 2.03 2.08 1.97 1.84 1.64 1.52 1.38 1.24 1.23 1.22 1.18 1.26 1.47 1.63 1.67 1.83 2.23 2.56 2.52 2.32 2.11 2.05
2.54 2.48 2.23 2.24 2.31 2.47 2.65 2.45 2.23 2.27 2.07 1.99 2.19 2.18 2.35 2.44 2.43 2.50 2.38 2.32 2.20 2.17 2.15 2.05 1.97 1.98 1.88 1.70 1.46 1.43 1.49 1.41 1.44 1.62 1.67 1.71 1.78 2.09 2.53 2.75 2.66 2.46 2.43
2.46 2.59 2.66 2.57 2.61 2.52 2.62 2.59 2.35 2.23 2.34 2.21 2.22 2.29 2.32 2.46 2.69 2.75 2.69 2.61 2.52 2.45 2.51 2.36 2.15 2.32 2.15 2.05 1.86 1.78 1.74 1.78 1.73 1.81 2.01 2.02 1.83 1.87 2.21 2.61 2.79 2.81 2.83
2.38 2.43 2.58 2.62 2.72 2.70 2.67 2.67 2.54 2.39 2.39 2.48 2.57 2.66 2.52 2.50 2.77 2.87 3.02 2.92 2.83 2.76 2.78 2.72 2.61 2.68 2.44 2.29 2.13 2.02 2.00 2.08 2.08 2.00 2.16 2.30 2.08 2.03 2.04 2.20 2.45 2.68 2.87
2.01 2.20 2.39 2.55 2.66 2.91 3.02 3.12 2.95 3.01 2.98 2.94 2.82 2.81 2.69 2.69 2.90 3.19 3.26 3.19 3.19 3.07 3.12 3.22 3.16 2.97 2.84 2.65 2.45 2.16 2.08 2.22 2.24 2.22 2.24 2.38 2.52 2.34 2.23 2.12 2.20 2.37 2.67
1.80 2.17 2.46 2.70 2.95 3.14 3.39 3.61 3.54 3.63 3.49 3.37 3.30 3.20 3.25 3.38 3.41 3.56 3.64 3.64 3.60 3.60 3.58 3.41 3.59 3.42 3.34 3.15 2.72 2.46 2.21 2.15 2.23 2.16 2.24 2.24 2.38 2.42 2.44 2.33 2.23 2.28 2.50
1.94 2.26 2.58 2.84 3.27 3.69 3.78 3.94 3.87 4.02 4.03 4.01 4.12 4.00 3.83 3.93 4.03 4.17 4.10 4.10 4.10 4.11 3.95 3.92 3.95 3.74 3.53 3.48 3.01 2.73 2.50 2.25 2.24 2.23 2.22 2.32 2.27 2.14 2.22 2.33 2.45 2.25 2.40
2.49 2.61 2.80 3.05 3.36 3.58 3.91 4.22 4.37 4.45 4.63 4.70 4.70 4.76 4.78 4.79 4.92 4.96 4.78 4.74 4.62 4.48 4.29 4.20 4.05 3.84 3.58 3.54 3.40 2.94 2.39 2.07 2.03 1.95 2.00 2.20 2.21 2.12 2.14 2.20 2.28 2.23 2.10
2.86 2.88 3.09 3.42 3.72 3.89 4.28 4.77 5.14 5.26 5.33 5.36 5.33 5.49 5.60 5.62 5.75 5.79 5.74 5.54 5.35 5.08 4.62 4.24 4.08 3.86 3.51 3.60 3.57 3.45 2.78 2.32 1.91 1.58 1.68 1.75 1.83 2.00 1.96 1.92 2.03 2.18 2.10
2.84 2.93 3.10 3.53 3.98 4.42 4.91 5.46 5.89 6.09 6.12 6.00 5.72 5.79 5.91 5.81 5.86 6.00 5.98 5.77 5.44 4.89 4.37 4.20 4.13 3.99 3.77 3.68 3.56 3.65 3.15 2.65 2.24 1.78 1.55 1.46 1.56 1.66 1.66 1.69 1.74 1.87 1.87
2.72 2.94 3.13 3.50 4.14 4.64 5.01 5.67 6.28 6.54 6.72 6.83 6.61 6.29 6.04 5.79 5.64 5.53 5.35 4.97 4.60 4.24 3.96 3.84 3.88 3.74 3.72 3.58 3.50 3.22 2.99 2.72 2.46 2.05 1.65 1.45 1.47 1.50 1.51 1.46 1.51 1.72 1.80
2.58 2.70 2.92 3.42 4.02 4.70 5.33 5.88 6.42 6.84 7.03 7.01 6.62 6.19 5.68 5.30 4.87 4.48 4.13 3.88 3.80 3.61 3.40 3.28 3.27 3.19 3.05 2.98 2.99 2.97 2.92 2.67 2.35 2.12 1.84 1.62 1.60 1.48 1.48 1.54 1.60 1.67 1.77
2.18 2.40 2.70 3.10 3.82 4.53 5.14 5.75 6.22 6.60 6.64 6.31 5.80 5.31 4.97 4.59 4.10 3.62 3.37 3.15 3.02 2.85 2.64 2.51 2.50 2.52 2.61 2.66 2.71 2.71 2.67 2.64 2.47 2.39 2.19 1.93 1.80 1.73 1.65 1.61 1.66 1.74 1.89